TimeMDT,TemperatureF,Dew PointF,Humidity,Sea Level PressureIn,VisibilityMPH,Wind Direction,Wind SpeedMPH,Gust SpeedMPH,PrecipitationIn,Events,Conditions,WindDirDegrees,DateUTC
12:53 AM,48.0,43.0,83,29.92,10.0,SSE,8.1,-,N/A,,Clear,150,2013-09-17 06:53:00
1:53 AM,48.0,43.0,83,29.92,10.0,South,5.8,-,N/A,,Clear,170,2013-09-17 07:53:00
2:53 AM,46.0,42.1,86,29.91,10.0,SE,9.2,-,N/A,,Clear,140,2013-09-17 08:53:00
3:53 AM,45.0,41.0,86,29.93,10.0,ESE,5.8,-,N/A,,Clear,120,2013-09-17 09:53:00
4:53 AM,46.0,42.1,86,29.90,10.0,SE,8.1,-,N/A,,Clear,130,2013-09-17 10:53:00
5:53 AM,46.0,42.1,86,29.92,10.0,SE,9.2,-,N/A,,Clear,140,2013-09-17 11:53:00
6:53 AM,46.0,41.0,83,29.95,10.0,ESE,5.8,-,N/A,,Clear,110,2013-09-17 12:53:00
7:53 AM,54.0,46.0,75,29.94,10.0,SSE,4.6,-,N/A,,Partly Cloudy,150,2013-09-17 13:53:00
8:53 AM,59.0,48.0,67,29.92,10.0,SSW,4.6,-,N/A,,Clear,200,2013-09-17 14:53:00
9:53 AM,64.9,46.0,50,29.90,10.0,SW,9.2,-,N/A,,Partly Cloudy,220,2013-09-17 15:53:00
10:53 AM,66.9,45.0,45,29.88,10.0,WSW,15.0,-,N/A,,Mostly Cloudy,240,2013-09-17 16:53:00
11:53 AM,71.1,43.0,36,29.84,10.0,SW,12.7,-,N/A,,Clear,230,2013-09-17 17:53:00
12:53 PM,72.0,41.0,33,29.81,10.0,WSW,18.4,-,N/A,,Clear,240,2013-09-17 18:53:00
1:53 PM,73.9,37.9,27,29.76,10.0,SW,18.4,25.3,N/A,,Clear,230,2013-09-17 19:53:00
2:53 PM,73.0,30.9,21,29.76,10.0,WSW,17.3,-,N/A,,Clear,240,2013-09-17 20:53:00
3:53 PM,72.0,34.0,25,29.76,10.0,SSW,13.8,-,N/A,,Partly Cloudy,210,2013-09-17 21:53:00
4:53 PM,71.1,39.0,31,29.75,10.0,WSW,12.7,-,N/A,,Clear,250,2013-09-17 22:53:00
5:53 PM,66.9,41.0,39,29.77,10.0,West,19.6,24.2,N/A,Thunderstorm,Mostly Cloudy,260,2013-09-17 23:53:00
6:44 PM,55.4,50.0,82,30.05,10.0,South,3.5,-,0.01,,Overcast,190,2013-09-18 00:44:00
6:53 PM,57.0,50.0,77,29.84,10.0,SW,8.1,-,0.01,,Overcast,230,2013-09-18 00:53:00
7:53 PM,57.9,48.0,70,29.78,10.0,SW,4.6,-,0.00,,Mostly Cloudy,220,2013-09-18 01:53:00
8:53 PM,54.0,48.0,80,29.77,10.0,South,10.4,-,N/A,,Clear,170,2013-09-18 02:53:00
9:53 PM,53.1,46.9,80,29.73,10.0,SSW,8.1,-,N/A,,Clear,200,2013-09-18 03:53:00
10:53 PM,52.0,46.9,83,29.70,10.0,South,9.2,-,N/A,,Clear,170,2013-09-18 04:53:00
11:53 PM,53.1,45.0,74,29.69,10.0,Calm,Calm,-,N/A,,Clear,0,2013-09-18 05:53:00